Header for Extended Forecast Station List Page

Search by: ID | Name | Date | Parm | Value | Avg | % Avg
Sort by: ID | Name | Date | Parm | Value | Avg | % Avg

Enter search or view all records.

Click on id for station plot
#IDNameDateParmValueAvg% Avg
0LYDM8KOOTENAI-LIBBY DAM03-23-2015INFLOW (KAF)4654533687
1LEOI1KOOTENAI-AT LEONIA03-23-2015DISCHARGE (KAF)4040492582
2BFEI1KOOTENAI-AT BONNERS FERRY03-23-2015STAGE (FT)MMM
3FCFM8NF FLATHEAD-NEAR COLUMBIA FALLS03-23-2015DISCHARGE (KAF)1295151486
4WGCM8MF FLATHEAD-NEAR WEST GLACIER03-23-2015DISCHARGE (KAF)1406148095
5HHWM8SF FLATHEAD-HUNGRY HORSE DAM03-23-2015INFLOW (KAF)1607186886
6CFMM8FLATHEAD-AT COLUMBIA FALLS03-23-2015DISCHARGE (KAF)3984400599
7DLGM8CLARK FORK-AT DEER LODGE03-23-2015DISCHARGE (KAF)618274
8DRMM8CLARK FORK-NR DRUMMOND03-23-2015DISCHARGE (KAF)204MM
9RCCM8ROCK CREEK-NEAR CLINTON03-23-2015DISCHARGE (KAF)297245121
10BONM8BLACKFOOT-NEAR BONNER03-23-2015DISCHARGE (KAF)63377082
11ABOM8CLARK FORK-ABOVE MISSOULA03-23-2015DISCHARGE (KAF)1180137386
12BITM8BITTERROOT-NEAR MISSOULA03-23-2015DISCHARGE (KAF)1060118889
13BELM8CLARK FORK-BELOW MISSOULA03-23-2015DISCHARGE (KAF)2240259986
14STRM8ST. REGIS-NEAR ST. REGIS03-23-2015DISCHARGE (KAF)19424978
15SRGM8CLARK FORK-AT ST REGIS03-23-2015DISCHARGE (KAF)2956348285
16KERM8FLATHEAD-KERR DAM03-23-2015INFLOW (KAF)4773502395
17NOXM8CLARK FORK-NOXON RAPIDS DAM03-23-2015INFLOW (KAF)7426865886
18CABI1CLARK FORK-CABINET GORGE DAM03-23-2015INFLOW (KAF)8218913590
19PRTI1PRIEST-NEAR PRIEST RIVER03-23-2015DISCHARGE (KAF)72577394
20ALFW1PEND OREILLE-ALBENI FALLS DAM03-23-2015INFLOW (KAF)91841076185
21HOPI1PEND OREILLE-PEND OREILLE LAKE NR HOPE03-23-2015LAKE ELEVATION (FT)MMM
22COEI1COEUR D ALENE-COEUR D ALENE LAKE03-23-2015INFLOW (KAF)1308261950
23SPOW1SPOKANE-AT SPOKANE03-23-2015DISCHARGE (KAF)1281MM
24LLKW1SPOKANE-AT LONGLAKE03-23-2015INFLOW (KAF)1468310047
25SATI1ST MARIES-NEAR SANTA03-23-2015DISCHARGE (KAF)5013636
26SJMI1ST JOE-AT ST MARIES03-23-2015STAGE (FT)MMM
27CIBW1COLUMBIA-AT INTL BOUNDARY03-23-2015DISCHARGE (KAF)24179MM
28LAUW1KETTLE-AT LAURIER03-23-2015DISCHARGE (KAF)1566169492
29GCDW1COLUMBIA-GRAND COULEE DAM03-23-2015INFLOW (KAF)272813878070
30CHJW1COLUMBIA-CHIEF JOSEPH DAM03-23-2015INFLOW (KAF)231293052076
31TONW1OKANOGAN-NEAR TONASKET03-23-2015DISCHARGE (KAF)1189139485
32PATW1METHOW-NEAR PATEROS03-23-2015DISCHARGE (KAF)73380791
33WELW1COLUMBIA-WELLS DAM03-23-2015INFLOW (KAF)250543309876
34CHDW1CHELAN-LAKE CHELAN DAM03-23-2015INFLOW (KAF)68092973
35RRHW1COLUMBIA-ROCKY REACH DAM03-23-2015INFLOW (KAF)257453358577
36ARDW1ENTIAT-NEAR ARDENVOIR03-23-2015DISCHARGE (KAF)12618667
37PESW1WENATCHEE-AT PESHASTIN03-23-2015DISCHARGE (KAF)759136156
38WANW1COLUMBIA-WANAPUM DAM03-23-2015INFLOW (KAF)265213950067
39PRWW1COLUMBIA-PRIEST RAPIDS DAM03-23-2015INFLOW (KAF)265244019466
40KEDW1YAKIMA-KEECHELUS LAKE03-23-2015INFLOW (KAF)4911045
41KADW1KACHESS-KACHESS DAM03-23-2015INFLOW (KAF)3710336
42EASW1YAKIMA-AT EASTON03-23-2015DISCHARGE (KAF)9594102
43CLUW1CLE ELUM-CLE ELUM LAKE03-23-2015INFLOW (KAF)14336639
44TNAW1TEANAWAY-BELOW FORKS03-23-2015DISCHARGE (KAF)3312028
45UMTW1YAKIMA-AT UMTANUM03-23-2015DISCHARGE (KAF)58273479
46BUDW1BUMPING-BUMPING LAKE DAM03-23-2015INFLOW (KAF)5811053
47CLFW1NACHES-NEAR CLIFFDEL03-23-2015DISCHARGE (KAF)17535150
48RILW1TIETON-RIMROCK LAKE NEAR RIMROCK03-23-2015INFLOW (KAF)10318356
49NACW1NACHES-NEAR NACHES03-23-2015DISCHARGE (KAF)24146851
50PARW1YAKIMA-NEAR PARKER03-23-2015DISCHARGE (KAF)26449553
51KIOW1YAKIMA-AT KIONA03-23-2015DISCHARGE (KAF)48688155
52IPDI1HENRYS FORK-ISLAND PARK DAM03-23-2015INFLOW (KAF)14119772
53CHEI1FALL RIVER-NEAR CHESTER03-23-2015DISCHARGE (KAF)25431980
54ANTI1HENRYS FORK-AT ST. ANTHONY03-23-2015DISCHARGE (KAF)43961771
55TEAI1TETON-NEAR ST. ANTHONY03-23-2015DISCHARGE (KAF)335321104
56REXI1HENRYS FORK-AT REXBURG03-23-2015DISCHARGE (KAF)54272175
57JLKW4SNAKE-JACKSON LAKE AT DAM03-23-2015INFLOW (KAF)61772285
58JKSW4SNAKE-NEAR JACKSON03-23-2015DISCHARGE (KAF)1396141299
59ALPW4SNAKE-NEAR ALPINE03-23-2015DISCHARGE (KAF)1804184598
60PLDI1SF SNAKE-PALISADES DAM03-23-2015INFLOW (KAF)2515269893
61HEII1SNAKE-NEAR HEISE03-23-2015DISCHARGE (KAF)29612667111
62RIDI1WILLOW CREEK-RIRIE DAM03-23-2015INFLOW (KAF)184342
63SIFI1SNAKE-AB EAGLE ROCK NR IDAHO FALLS03-23-2015DISCHARGE (KAF)24082321104
64SHYI1SNAKE-NEAR SHELLEY03-23-2015DISCHARGE (KAF)2169220798
65SNAI1SNAKE-AT BLACKFOOT03-23-2015DISCHARGE (KAF)1716180995
66BFTI1SNAKE-NEAR BLACKFOOT03-23-2015DISCHARGE (KAF)1669173996
67PIHI1PORTNEUF-AT POCATELLO03-23-2015DISCHARGE (KAF)278432
68AFRI1SNAKE-AMERICAN FALLS RESERVOIR03-23-2015INFLOW (KAF)2168238191
69MILI1SNAKE-AT MILNER03-23-2015DISCHARGE (KAF)18345740
70HOTI1BRUNEAU-NEAR HOT SPRINGS03-23-2015DISCHARGE (KAF)4317724
71SWAI1SNAKE-BELOW SWAN FALLS03-23-2015DISCHARGE (KAF)1628245266
72HWRI1BIG LOST-AT HOWELL RANCH NEAR CHILLY03-23-2015DISCHARGE (KAF)10014867
73MACI1BIG LOST-MACKAY RESERVOIR NEAR MACKAY03-23-2015INFLOW (KAF)8914960
74HALI1BIG WOOD-AT HAILEY03-23-2015DISCHARGE (KAF)17221879
75MAGI1BIG WOOD-MAGIC DAM03-23-2015INFLOW (KAF)14024158
76LWRI1LITTLE WOOD-LITTLE WOOD DAM03-23-2015INFLOW (KAF)297538
77OWYO3OWYHEE-BELOW OWYHEE DAM03-23-2015INFLOW (KAF)6232119
78ARAI1SF BOISE-ANDERSON RANCH DAM03-23-2015INFLOW (KAF)32149864
79LUCI1BOISE-LUCKY PEAK DAM03-23-2015INFLOW (KAF)1030MM
80BIGI1BOISE-AT GLENWOOD BRIDGE03-23-2015DISCHARGE (KAF)39342393
81PARI1BOISE-NEAR PARMA03-23-2015DISCHARGE (KAF)36341787
82WRMO3MALHEUR-WARM SPRINGS DAM03-23-2015INFLOW (KAF)214745
83BERO3MALHEUR-AGENCY VALLEY DAM03-23-2015INFLOW (KAF)294366
84BULO3BULLY CREEK-BULLY CREEK DAM03-23-2015INFLOW (KAF)55101
85VALO3MALHEUR-NEAR VALE03-23-2015DISCHARGE (KAF)4537
86CSDI1NF PAYETTE-CASCADE DAM03-23-2015INFLOW (KAF)28848360
87DEDI1DEADWOOD-NEAR LOWMAN03-23-2015INFLOW (KAF)8812869
88EMMI1PAYETTE-NEAR EMMETT03-23-2015DISCHARGE (KAF)708119459
89WSRI1WEISER-NEAR WEISER03-23-2015DISCHARGE (KAF)16938244
90WEII1SNAKE-AT WEISER03-23-2015DISCHARGE (KAF)2978497060
91BRNI1SNAKE-BROWNLEE DAM03-23-2015INFLOW (KAF)3374539863
92WHBI1SALMON-AT WHITEBIRD03-23-2015DISCHARGE (KAF)4315549279
93TRYO3GRANDE RONDE-TROY03-23-2015DISCHARGE (KAF)547124444
94ANAW1SNAKE-NEAR ANATONE03-23-2015DISCHARGE (KAF)82211316762
95ORFI1CLEARWATER-AT OROFINO03-23-2015DISCHARGE (KAF)3729449383
96DWRI1NF CLEARWATER-DWORSHAK DAM03-23-2015INFLOW (KAF)1746265366
97SPDI1CLEARWATER-AT SPALDING03-23-2015DISCHARGE (KAF)5271683277
98LGDW1SNAKE-LOWER GRANITE DAM03-23-2015INFLOW (KAF)134902003567
99LGSW1SNAKE-LITTLE GOOSE DAM03-23-2015INFLOW (KAF)134882003367
100LMNW1SNAKE-LOWER MONUMENTAL DAM03-23-2015INFLOW (KAF)135802016067
101IHDW1SNAKE-ICE HARBOR DAM03-23-2015INFLOW (KAF)135912002868
102TCHW1WALLA WALLA-NEAR TOUCHET03-23-2015DISCHARGE (KAF)5412842
103MCDW1COLUMBIA-MCNARY DAM03-23-2015INFLOW (KAF)407506213666
104GIBO3UMATILLA-NEAR GIBBON03-23-2015DISCHARGE (KAF)327046
105PDTO3UMATILLA-AT PENDLETON03-23-2015DISCHARGE (KAF)5914341
106MYKO3MCKAY CREEK-NEAR PILOT ROCK03-23-2015DISCHARGE (KAF)192481
107UMAO3UMATILLA-NEAR UMATILLA03-23-2015DISCHARGE (KAF)369637
108MONO3NF JOHN DAY-AT MONUMENT03-23-2015DISCHARGE (KAF)20256736
109SERO3JOHN DAY-AT SERVICE CK03-23-2015DISCHARGE (KAF)27980335
110JDAO3COLUMBIA-JOHN DAY DAM03-23-2015INFLOW (KAF)422046430366
111MODO3DESCHUTES-AT MOODY NR BIGGS03-23-2015DISCHARGE (KAF)1158139783
112TDAO3COLUMBIA-THE DALLES DAM03-23-2015INFLOW (KAF)423545831873
113PITW1KLICKITAT-NEAR PITT03-23-2015DISCHARGE (KAF)29948362
114HODO3HOOD-NEAR TUCKER BRIDGE03-23-2015DISCHARGE (KAF)14122862
115UNDW1WHITE SALMON-NEAR UNDERWOOD03-23-2015DISCHARGE (KAF)23032471
116BONO3COLUMBIA-BONNEVILLE DAM03-23-2015INFLOW (KAF)43040MM